Location: Julian California
(33.0790°N, 116.6010°W)
Time: 21:39:49
(UTC-07:00)

Nadezhda 1 Rocket - Pass Details

Date: 12 July 2018
Orbit: 941 x 1006 km, 83.0° (Epoch: 17 July)

Event Time Altitude Azimuth Distance (km) Brightness Sun altitude
Exits shadow 21:41:50 13° 184° (S) 2,516 5.8 -18.8°
Maximum altitude 21:47:33 90° 284° (WNW) 999 4.0 -19.6°
Drops below altitude 10° 21:53:52 10° 6° (N) 2,746 6.9 -20.6°
Sets 21:56:23 0° 6° (N) 3,688 7.6 -20.9°
